Stuart, FL

1:22 PM EST on November 24, 2017 (GMT -0500)
Witham

Weather History for KSUA - May, 2013

Change the Weather History Date:

Friday, May 17, 2013

  Actual Average Record
Temperature  
Mean Temperature 76 °F -  
Max Temperature 84 °F 85 °F 93 °F (2008)
Min Temperature 68 °F 69 °F 57 °F (1973)
Cooling Degree Days 11    
Growing Degree Days 26 (Base 50)    
Moisture  
Dew Point 66 °F    
Average Humidity 72    
Maximum Humidity 83    
Minimum Humidity 58    
Precipitation  
Precipitation 0.00 in - - ()
Sea Level Pressure  
Sea Level Pressure 30.09 in    
Wind  
Wind Speed 6 mph (ESE)    
Max Wind Speed 16 mph    
Max Gust Speed 16 mph    
Visibility 9 miles    
Events      
Averages and records for this station are not official NWS values.
T = Trace of Precipitation, MM = Missing Value Source: NWS Daily Summary

Daily Weather History Graph

Daily Weather History Graph

Search for Another Location

Airport or City:

Trip Planner

Search our weather history database for the weather conditions in past years. The results will help you decide how hot, cold, wet, or windy it might be!

Date:

Astronomy

May. 17, 2013 Rise Set
Actual Time 6:31 AM EDT 8:03 PM EDT
Civil Twilight 6:06 AM EDT 8:28 PM EDT
Nautical Twilight 5:35 AM EDT 8:59 PM EDT
Astronomical Twilight 5:04 AM EDT 9:31 PM EDT
Moon 12:47 PM EDT (5/17) 1:08 AM EDT (5/17)
Length of Visible Light 14h 22m
Length of Day
13h 31m
Waxing Crescent, 45% of the Moon is Illuminated
May 17
Waxing Crescent
May 18
First Quarter
May 25
Full
May 31
Last Quarter
Jun 8
New

Hourly Weather History & Observations

Time (EDT) Temp. Heat Index Dew Point Humidity Pressure Visibility Wind Dir Wind Speed Gust Speed Precip Events Conditions
12:15 AM 75.2 °F - 64.4 °F 69% 30.09 in 10.0 mi ESE 11.5 mph 16.1 mph N/A   Mostly Cloudy
12:35 AM 75.2 °F - 64.4 °F 69% 30.09 in 10.0 mi ESE 8.1 mph - N/A   Mostly Cloudy
12:55 AM 73.4 °F - 64.4 °F 73% 30.09 in 10.0 mi SE 6.9 mph - N/A   Scattered Clouds
1:15 AM 75.2 °F - 62.6 °F 65% 30.08 in 10.0 mi SSE 5.8 mph - N/A   Scattered Clouds
1:35 AM 73.4 °F - 62.6 °F 69% 30.08 in 10.0 mi SSE 3.5 mph - N/A   Scattered Clouds
1:55 AM 73.4 °F - 62.6 °F 69% 30.08 in 10.0 mi Calm Calm - N/A   Scattered Clouds
2:15 AM 73.4 °F - 62.6 °F 69% 30.07 in 10.0 mi Calm Calm - N/A   Clear
2:35 AM 71.6 °F - 62.6 °F 73% 30.07 in 10.0 mi Calm Calm - N/A   Clear
2:55 AM 71.6 °F - 62.6 °F 73% 30.06 in 10.0 mi Calm Calm - N/A   Clear
3:15 AM 69.8 °F - 62.6 °F 78% 30.05 in 10.0 mi Calm Calm - N/A   Clear
3:35 AM 69.8 °F - 62.6 °F 78% 30.05 in 10.0 mi Calm Calm - N/A   Clear
3:55 AM 69.8 °F - 62.6 °F 78% 30.05 in 10.0 mi Calm Calm - N/A   Scattered Clouds
4:15 AM 71.6 °F - 62.6 °F 73% 30.05 in 10.0 mi Calm Calm - N/A   Scattered Clouds
4:35 AM 71.6 °F - 62.6 °F 73% 30.05 in 10.0 mi Calm Calm - N/A   Clear
4:55 AM 71.6 °F - 62.6 °F 73% 30.05 in 10.0 mi Calm Calm - N/A   Clear
5:15 AM 69.8 °F - 62.6 °F 78% 30.05 in 10.0 mi Calm Calm - N/A   Clear
5:35 AM 69.8 °F - 62.6 °F 78% 30.05 in 10.0 mi Calm Calm - N/A   Clear
5:55 AM 69.8 °F - 64.4 °F 83% 30.06 in 10.0 mi Calm Calm - N/A   Clear
6:15 AM 68.0 °F - 62.6 °F 83% 30.07 in 10.0 mi NW 3.5 mph - N/A   Clear
6:47 AM 71.6 °F - 64.4 °F 78% 30.07 in 10.0 mi Calm Calm - N/A   Mostly Cloudy
7:47 AM 73.4 °F - 62.6 °F 69% 30.09 in 7.0 mi Calm Calm - N/A   Scattered Clouds
8:47 AM 78.8 °F - 66.2 °F 65% 30.10 in 7.0 mi Calm Calm - N/A   Scattered Clouds
9:47 AM 80.6 °F 82.7 °F 66.2 °F 61% 30.11 in 7.0 mi Calm Calm - N/A   Scattered Clouds
10:47 AM 80.6 °F 82.7 °F 66.2 °F 61% 30.11 in 7.0 mi ENE 9.2 mph - N/A   Scattered Clouds
11:47 AM 82.4 °F 84.6 °F 66.2 °F 58% 30.12 in 7.0 mi East 10.4 mph - N/A   Scattered Clouds
12:47 PM 84.2 °F 87.3 °F 68.0 °F 58% 30.11 in 7.0 mi East 13.8 mph - N/A   Mostly Cloudy
1:47 PM 82.4 °F 84.6 °F 66.2 °F 58% 30.10 in 7.0 mi East 11.5 mph - N/A   Mostly Cloudy
2:47 PM 82.4 °F 84.6 °F 66.2 °F 58% 30.10 in 7.0 mi East 12.7 mph - N/A   Mostly Cloudy
3:47 PM 82.4 °F 84.6 °F 66.2 °F 58% 30.09 in 7.0 mi East 16.1 mph - N/A   Mostly Cloudy
4:47 PM 82.4 °F 86.3 °F 69.8 °F 66% 30.09 in 7.0 mi ESE 13.8 mph - N/A   Scattered Clouds
5:47 PM 80.6 °F 83.2 °F 68.0 °F 65% 30.09 in 7.0 mi ESE 13.8 mph - N/A   Scattered Clouds
6:47 PM 80.6 °F 83.2 °F 68.0 °F 65% 30.09 in 7.0 mi ESE 11.5 mph - N/A   Scattered Clouds
8:15 PM 77.0 °F - 69.8 °F 78% 30.10 in 10.0 mi ESE 10.4 mph - N/A   Scattered Clouds
8:35 PM 77.0 °F - 69.8 °F 78% 30.10 in 10.0 mi East 8.1 mph - N/A   Scattered Clouds
8:55 PM 77.0 °F - 68.0 °F 74% 30.10 in 10.0 mi East 8.1 mph - N/A   Clear
9:15 PM 77.0 °F - 68.0 °F 74% 30.10 in 10.0 mi ESE 6.9 mph - N/A   Clear
9:35 PM 77.0 °F - 68.0 °F 74% 30.11 in 10.0 mi ESE 6.9 mph - N/A   Clear
9:55 PM 77.0 °F - 69.8 °F 78% 30.11 in 10.0 mi ESE 8.1 mph - N/A   Clear
10:15 PM 77.0 °F - 69.8 °F 78% 30.11 in 10.0 mi ESE 9.2 mph - N/A   Clear
10:35 PM 77.0 °F - 69.8 °F 78% 30.12 in 10.0 mi SE 8.1 mph - N/A   Clear
10:55 PM 77.0 °F - 69.8 °F 78% 30.12 in 10.0 mi ESE 9.2 mph - N/A   Clear
11:15 PM 75.2 °F - 69.8 °F 83% 30.12 in 10.0 mi ESE 6.9 mph - N/A   Clear
11:35 PM 75.2 °F - 69.8 °F 83% 30.12 in 10.0 mi SE 6.9 mph - N/A   Clear
11:55 PM 75.2 °F - 68.0 °F 78% 30.11 in 10.0 mi SE 8.1 mph - N/A   Clear